Retour au catalogue

STARLINK-5467

ActifCommunicationsVLEO
NORAD 55660·PAYLOAD·🇺🇸 United States

Lancé Feb 17, 2023 depuis Vandenberg Space Force Base

Loading…

Prochains Passages (prochaines 24 heures)

TLE

FraisSource: CelesTrak SupGP

Époque: Sep 15, 2026, 02:47 UTC

1 55660C 23021AJ  26258.11645833 -.00032477  00000+0 -27218-2 0  2588
2 55660  70.0020  46.6847 0002912 267.9872  68.0863 14.98345040    13

Suivez STARLINK-5467 en temps réel avec AllMySat

Download on the App Store